MPEC 2008-G50 : 2008 GS3

The following Minor Planet Electronic Circular may be linked-to from your own Web pages, but must not otherwise be redistributed electronically.


Read MPEC 2008-G49 Read MPEC 2008-G51


M.P.E.C. 2008-G50                                Issued 2008 Apr.  9, 15:28 UT

     The Minor Planet Electronic Circulars contain information on unusual
         minor planets and routine data on comets.  They are published
   on behalf of Commission 20 of the International Astronomical Union by the
          Minor Planet Center, Smithsonian Astrophysical Observatory,
                          Cambridge, MA 02138, U.S.A.

             Prepared using the Tamkin Foundation Computer Network

                              MPC@CFA.HARVARD.EDU
          URL http://www.cfa.harvard.edu/iau/mpc.html  ISSN 1523-6714

                                   2008 GS3

Observations:
     K08G03S* C2008 04 07.30411 13 16 25.09 -03 53 56.7          18.6   EG050704
     K08G03S  C2008 04 07.31579 13 16 21.67 -03 52 05.5          19.0   EG050704
     K08G03S  C2008 04 07.32721 13 16 18.34 -03 50 15.6          19.1   EG050704
     K08G03S  C2008 04 07.33866 13 16 14.92 -03 48 25.4          19.1   EG050704
     K08G03S  C2008 04 07.35010 13 16 11.58 -03 46 36.3          18.9   EG050704
     K08G03S  C2008 04 07.88492 13 13 45.70 -02 21 23.6                 EG050204
     K08G03S  C2008 04 07.89116 13 13 43.91 -02 20 23.7          19.3 R EG050204
     K08G03S  C2008 04 07.92046 13 13 35.62 -02 15 47.5                 EG050J95
     K08G03S  C2008 04 07.92287 13 13 34.91 -02 15 23.9                 EG050J95
     K08G03S  C2008 04 07.92520 13 13 34.27 -02 15 02.2                 EG050J95
     K08G03S  C2008 04 07.93248 13 13 32.18 -02 13 52.6          18.9 R EG050J95
     K08G03S  C2008 04 08.23996 13 12 07.87 -01 24 52.1          19.7 R EG050854
     K08G03S  C2008 04 08.24217 13 12 07.34 -01 24 31.6          18.6 R EG050854
     K08G03S  C2008 04 08.32549 13 11 42.93 -01 11 21.1          19.2 V EG050G96
     K08G03S  C2008 04 08.33214 13 11 40.99 -01 10 18.0          19.0 V EG050G96
     K08G03S  C2008 04 08.33885 13 11 39.01 -01 09 14.2          18.9 V EG050G96
     K08G03S  C2008 04 08.34554 13 11 37.06 -01 08 10.6          18.9 V EG050G96
     K08G03S  C2008 04 08.40917 13 11 18.63 -00 58 07.8          19.4 V EG050G96
     K08G03S  C2008 04 08.40960 13 11 18.49 -00 58 03.8          19.4 V EG050G96
     K08G03S  C2008 04 08.41001 13 11 18.38 -00 58 00.0          19.4 V EG050G96
     K08G03S  C2008 04 08.41043 13 11 18.24 -00 57 55.9          19.3 V EG050G96
     K08G03S  C2008 04 08.44798 13 11 07.47 -00 52 00.2          19.0 V EG050G96
     K08G03S  C2008 04 08.44835 13 11 07.36 -00 51 56.7          19.0 V EG050G96
     K08G03S  C2008 04 08.44873 13 11 07.26 -00 51 52.9          18.8 V EG050G96
     K08G03S  C2008 04 08.44909 13 11 07.15 -00 51 49.7          19.0 V EG050G96
     K08G03S  C2008 04 08.47611 13 10 59.48 -00 47 33.5          19.3 V EG050G96
     K08G03S  C2008 04 08.47701 13 10 59.26 -00 47 25.0          19.4 V EG050G96
     K08G03S  C2008 04 08.47792 13 10 59.01 -00 47 17.8          19.7 V EG050G96
     K08G03S  C2008 04 08.47881 13 10 58.76 -00 47 07.9          19.1 V EG050G96

Observer details:
204 Schiaparelli Observatory.  Observer L. Buzzi.  0.60-m f/4.64 reflector
    + CCD.
704 Lincoln Laboratory ETS, New Mexico.  Observers M. Bezpalko, D. Torres,
    R. Kracke, G. Spitz, J. Kistler.  Measurers J. Stuart, S. Scruggs.  1.0-m
    f/2.15 reflector + CCD.
854 Sabino Canyon Observatory, Tucson.  Observer J. E. McGaha.  0.36-m f/10.0
    Schmidt-Cassegrain + CCD.
G96 Mt. Lemmon Survey.  Observer A. R. Gibbs.  Measurers E. C. Beshore,
    A. Boattini, G. J. Garradd, A. R. Gibbs, A. D. Grauer, R. E. Hill,
    R. A. Kowalski, S. M. Larson, R. H. McNaught.  1.5-m reflector + CCD.
J95 Great Shefford.  Observer P. Birtwhistle.  0.40-m f/6.0 Schmidt-Cassegrain
    + CCD.

Orbital elements:
2008 GS3                                                 Earth MOID = 0.1652 AU
Epoch 2008 Apr. 4.0 TT = JDT 2454560.5                  MPC
M 163.39028              (2000.0)            P               Q
n   1.24775740     Peri.  187.31002     +0.91652276     -0.37469335
a   0.8545076      Node   196.91278     +0.38700422     +0.91913409
e   0.3746736      Incl.   28.75909     +0.10106315     -0.12164463
P   0.79           H   22.2           G   0.15
From 29 observations 2008 Apr. 7-8.

Ephemeris:
2008 GS3                 a,e,i = 0.85, 0.37, 29                  q = 0.5343
Date    TT    R. A. (2000) Decl.     Delta      r     Elong.  Phase     V
2008 04 04    13 31.98   -12 42.5    0.170    1.168   168.2    10.1    19.3
2008 04 06    13 22.51   -07 22.9    0.169    1.170   174.5     4.7    19.1
2008 04 08    13 13.21   -02 02.6    0.170    1.171   174.7     4.6    19.1
2008 04 10    13 04.19   +03 09.5    0.174    1.173   168.5     9.8    19.4
2008 04 12    12 55.53   +08 05.3    0.179    1.174   161.9    15.4    19.7
2008 04 14    12 47.31   +12 39.1    0.185    1.174   155.5    20.7    19.9
2008 04 16    12 39.57   +16 47.7    0.194    1.175   149.5    25.7    20.2
2008 04 18    12 32.37   +20 30.0    0.203    1.175   143.9    30.2    20.4
2008 04 20    12 25.70   +23 46.6    0.214    1.174   138.8    34.3    20.6
2008 04 22    12 19.60   +26 39.0    0.226    1.174   134.1    37.9    20.8
2008 04 24    12 14.04   +29 09.4    0.238    1.173   129.9    41.2    21.0
2008 04 26    12 09.02   +31 20.2    0.251    1.172   125.9    44.1    21.2
2008 04 28    12 04.53   +33 13.8    0.265    1.170   122.3    46.7    21.4
2008 04 30    12 00.54   +34 52.3    0.279    1.168   119.0    49.0    21.6
2008 05 02    11 57.03   +36 17.8    0.293    1.166   115.9    51.0    21.8
2008 05 04    11 53.98   +37 32.0    0.307    1.163   113.0    52.9    21.9

Timothy B. Spahr             (C) Copyright 2008 MPC           M.P.E.C. 2008-G50

Read MPEC 2008-G49 Read MPEC 2008-G51


Our Web policy. Index to the CBAT/MPC/ICQ pages.

MPC

Valid HTML 4.01!